| time (UTC) | temp C | wind direction | speed KPH | gust KPH | rain 1hr cm | rain 24hr cm | rain mn cm | humidity % | barometer mb |
| 20260504141035 | 14 | 0 | 0.0 | 1.6 | 0.00 | 0.00 | 0.00 | 81 | 1010.6 |
| 20260504140539 | 13 | 0 | 0.0 | 1.6 | 0.00 | 0.00 | 0.00 | 82 | 1010.7 |
| 20260504140106 | 13 | 0 | 0.0 | 4.8 | 0.00 | 0.00 | 0.00 | 83 | 1010.7 |
| 20260504130539 | 12 | 272 | 3.2 | 8.0 | 0.00 | 0.00 | 0.00 | 80 | 1010.2 |
| 20260504110537 | 12 | 334 | 3.2 | 6.4 | 0.00 | 0.00 | 0.00 | 80 | 1010.2 |
| 20260504100536 | 13 | 353 | 0.0 | 3.2 | 0.00 | 0.00 | 0.00 | 76 | 1010.0 |
| 20260504081550 | 14 | 329 | 1.6 | 3.2 | 0.00 | 0.00 | 0.00 | 78 | 1009.7 |
| 20260504081039 | 14 | 0 | 0.0 | 4.8 | 0.00 | 0.00 | 0.00 | 77 | 1009.8 |
| 20260504080538 | 14 | 0 | 1.6 | 4.8 | 0.00 | 0.00 | 0.00 | 79 | 1009.8 |
| 20260504080106 | 13 | 327 | 1.6 | 3.2 | 0.00 | 0.00 | 0.00 | 81 | 1009.8 |
| 20260504050537 | 16 | 252 | 4.8 | 12.9 | 0.00 | 0.00 | 0.00 | 75 | 1009.6 |
| 20260504045543 | 16 | 62 | 0.0 | 4.8 | 0.00 | 0.00 | 0.00 | 70 | 1009.6 |
| 20260504045037 | 17 | 0 | 0.0 | 6.4 | 0.00 | 0.00 | 0.00 | 69 | 1009.5 |
| 20260504044552 | 17 | 62 | 1.6 | 11.3 | 0.00 | 0.00 | 0.00 | 70 | 1009.5 |
| 20260504044037 | 17 | 62 | 4.8 | 11.3 | 0.00 | 0.00 | 0.00 | 70 | 1009.5 |
| 20260504043542 | 17 | 64 | 4.8 | 9.7 | 0.00 | 0.00 | 0.00 | 69 | 1009.5 |
| 20260504043053 | 17 | 80 | 1.6 | 9.7 | 0.00 | 0.00 | 0.00 | 66 | 1009.5 |
| 20260504042541 | 17 | 79 | 1.6 | 9.7 | 0.00 | 0.00 | 0.00 | 67 | 1009.4 |
| 20260504042041 | 17 | 70 | 4.8 | 12.9 | 0.00 | 0.00 | 0.00 | 69 | 1009.5 |
| 20260504041549 | 18 | 81 | 6.4 | 12.9 | 0.00 | 0.00 | 0.00 | 65 | 1009.6 |
| 20260504041040 | 18 | 80 | 3.2 | 8.0 | 0.00 | 0.00 | 0.00 | 66 | 1009.5 |
| 20260504040540 | 18 | 75 | 4.8 | 11.3 | 0.00 | 0.00 | 0.00 | 66 | 1009.5 |
| 20260504040052 | 18 | 73 | 3.2 | 14.5 | 0.00 | 0.00 | 0.00 | 65 | 1009.5 |
| 20260504035540 | 18 | 72 | 9.7 | 14.5 | 0.00 | 0.00 | 0.00 | 64 | 1009.5 |
| 20260504035042 | 19 | 62 | 8.0 | 14.5 | 0.00 | 0.00 | 0.00 | 63 | 1009.4 |
| 20260504034549 | 20 | 64 | 9.7 | 14.5 | 0.00 | 0.00 | 0.00 | 60 | 1009.4 |
| 20260504034043 | 21 | 55 | 4.8 | 9.7 | 0.00 | 0.00 | 0.00 | 54 | 1009.5 |
| 20260504033537 | 22 | 0 | 3.2 | 16.1 | 0.00 | 0.00 | 0.00 | 42 | 1009.4 |
| 20260504033047 | 22 | 230 | 8.0 | 16.1 | 0.00 | 0.00 | 0.00 | 42 | 1009.3 |
| 20260504032541 | 21 | 238 | 8.0 | 16.1 | 0.00 | 0.00 | 0.00 | 44 | 1009.4 |
| 20260504032041 | 21 | 239 | 8.0 | 17.7 | 0.00 | 0.00 | 0.00 | 47 | 1009.4 |
| 20260504031547 | 21 | 233 | 11.3 | 17.7 | 0.00 | 0.00 | 0.00 | 47 | 1009.4 |
| 20260504031038 | 22 | 243 | 9.7 | 20.9 | 0.00 | 0.00 | 0.00 | 46 | 1009.4 |
| 20260504030540 | 22 | 239 | 14.5 | 22.5 | 0.00 | 0.00 | 0.00 | 43 | 1009.5 |
| 20260504030042 | 22 | 240 | 16.1 | 22.5 | 0.00 | 0.00 | 0.00 | 43 | 1009.5 |
| 20260504025541 | 22 | 247 | 14.5 | 20.9 | 0.00 | 0.00 | 0.00 | 43 | 1009.6 |
| 20260504025041 | 23 | 239 | 16.1 | 22.5 | 0.00 | 0.00 | 0.00 | 43 | 1009.6 |
| 20260504024602 | 23 | 226 | 11.3 | 25.7 | 0.00 | 0.00 | 0.00 | 38 | 1009.6 |
| 20260504024043 | 23 | 249 | 16.1 | 25.7 | 0.00 | 0.00 | 0.00 | 37 | 1009.6 |
| 20260504023540 | 23 | 216 | 17.7 | 25.7 | 0.00 | 0.00 | 0.00 | 37 | 1009.6 |
| 20260504023049 | 23 | 240 | 17.7 | 29.0 | 0.00 | 0.00 | 0.00 | 38 | 1009.7 |
| 20260504022541 | 24 | 245 | 17.7 | 29.0 | 0.00 | 0.00 | 0.00 | 38 | 1009.7 |
| 20260504022040 | 24 | 229 | 17.7 | 25.7 | 0.00 | 0.00 | 0.00 | 36 | 1009.7 |
| 20260504021546 | 24 | 233 | 16.1 | 25.7 | 0.00 | 0.00 | 0.00 | 36 | 1009.8 |
| 20260504021040 | 24 | 226 | 16.1 | 27.4 | 0.00 | 0.00 | 0.00 | 36 | 1009.7 |
| 20260504020539 | 24 | 237 | 19.3 | 29.0 | 0.00 | 0.00 | 0.00 | 36 | 1009.8 |
| 20260504020047 | 24 | 229 | 20.9 | 29.0 | 0.00 | 0.00 | 0.00 | 36 | 1009.8 |
| 20260504015540 | 24 | 225 | 19.3 | 30.6 | 0.00 | 0.00 | 0.00 | 36 | 1009.8 |
| 20260504015036 | 24 | 231 | 20.9 | 30.6 | 0.00 | 0.00 | 0.00 | 37 | 1009.9 |
| 20260504014551 | 23 | 245 | 22.5 | 32.2 | 0.00 | 0.00 | 0.00 | 38 | 1009.9 |
| 20260504014036 | 23 | 238 | 22.5 | 32.2 | 0.00 | 0.00 | 0.00 | 38 | 1010.1 |
| 20260504013536 | 23 | 223 | 22.5 | 30.6 | 0.00 | 0.00 | 0.00 | 38 | 1010.1 |
| 20260504013054 | 23 | 243 | 19.3 | 30.6 | 0.00 | 0.00 | 0.00 | 38 | 1010.1 |
| 20260504012540 | 23 | 227 | 22.5 | 32.2 | 0.00 | 0.00 | 0.00 | 38 | 1010.1 |
| 20260504012037 | 23 | 222 | 24.1 | 37.0 | 0.00 | 0.00 | 0.00 | 38 | 1010.2 |
| 20260504011549 | 23 | 237 | 24.1 | 37.0 | 0.00 | 0.00 | 0.00 | 38 | 1010.3 |
| 20260504011037 | 23 | 251 | 24.1 | 30.6 | 0.00 | 0.00 | 0.00 | 38 | 1010.3 |
| 20260504010536 | 23 | 233 | 20.9 | 30.6 | 0.00 | 0.00 | 0.00 | 39 | 1010.3 |
| 20260504010049 | 23 | 245 | 20.9 | 32.2 | 0.00 | 0.00 | 0.00 | 41 | 1010.4 |
| 20260504005536 | 23 | 237 | 24.1 | 33.8 | 0.00 | 0.00 | 0.00 | 42 | 1010.4 |
| 20260504005036 | 23 | 251 | 27.4 | 35.4 | 0.00 | 0.00 | 0.00 | 43 | 1010.4 |
| 20260504004548 | 22 | 236 | 25.7 | 40.2 | 0.00 | 0.00 | 0.00 | 43 | 1010.6 |
| 20260504004038 | 23 | 237 | 24.1 | 40.2 | 0.00 | 0.00 | 0.00 | 46 | 1010.6 |
| 20260504003536 | 23 | 216 | 29.0 | 40.2 | 0.00 | 0.00 | 0.00 | 44 | 1010.7 |
| 20260504003053 | 23 | 236 | 30.6 | 40.2 | 0.00 | 0.00 | 0.00 | 42 | 1010.7 |
| 20260504002537 | 23 | 239 | 24.1 | 40.2 | 0.00 | 0.00 | 0.00 | 42 | 1010.7 |
| 20260504002037 | 23 | 214 | 25.7 | 38.6 | 0.00 | 0.00 | 0.00 | 40 | 1010.7 |
| 20260504001546 | 23 | 245 | 25.7 | 37.0 | 0.00 | 0.00 | 0.00 | 40 | 1010.9 |
| 20260504001038 | 23 | 239 | 22.5 | 37.0 | 0.00 | 0.00 | 0.00 | 41 | 1010.9 |
| 20260504000536 | 23 | 226 | 17.7 | 37.0 | 0.00 | 0.00 | 0.00 | 42 | 1010.9 |
| 20260504000116 | 23 | 234 | 22.5 | 38.6 | 0.00 | 0.00 | 0.00 | 41 | 1011.0 |
| 20260503235536 | 23 | 244 | 22.5 | 38.6 | 0.00 | 0.00 | 0.00 | 40 | 1011.0 |
| 20260503235036 | 23 | 244 | 24.1 | 38.6 | 0.00 | 0.00 | 0.00 | 40 | 1011.1 |
| 20260503234556 | 23 | 205 | 24.1 | 37.0 | 0.00 | 0.00 | 0.00 | 39 | 1011.1 |
| 20260503234037 | 23 | 211 | 25.7 | 35.4 | 0.00 | 0.00 | 0.00 | 43 | 1011.2 |
| 20260503233537 | 23 | 238 | 22.5 | 35.4 | 0.00 | 0.00 | 0.00 | 44 | 1011.2 |
| 20260503233045 | 23 | 245 | 25.7 | 35.4 | 0.00 | 0.00 | 0.00 | 46 | 1011.2 |
| 20260503232536 | 23 | 244 | 22.5 | 33.8 | 0.00 | 0.00 | 0.00 | 45 | 1011.3 |
| 20260503232036 | 23 | 243 | 27.4 | 35.4 | 0.00 | 0.00 | 0.00 | 45 | 1011.3 |
| 20260503231543 | 23 | 251 | 25.7 | 35.4 | 0.00 | 0.00 | 0.00 | 45 | 1011.5 |
| 20260503231036 | 22 | 246 | 27.4 | 35.4 | 0.00 | 0.00 | 0.00 | 47 | 1011.5 |
| 20260503230537 | 22 | 245 | 27.4 | 38.6 | 0.00 | 0.00 | 0.00 | 48 | 1011.6 |
| 20260503230049 | 22 | 248 | 29.0 | 38.6 | 0.00 | 0.00 | 0.00 | 48 | 1011.6 |
| 20260503225538 | 22 | 245 | 29.0 | 38.6 | 0.00 | 0.00 | 0.00 | 44 | 1011.6 |
| 20260503225036 | 22 | 243 | 27.4 | 35.4 | 0.00 | 0.00 | 0.00 | 46 | 1011.8 |
| 20260503224546 | 22 | 251 | 24.1 | 35.4 | 0.00 | 0.00 | 0.00 | 49 | 1011.9 |
| 20260503224036 | 22 | 236 | 24.1 | 35.4 | 0.00 | 0.00 | 0.00 | 45 | 1012.0 |
| 20260503223537 | 22 | 217 | 25.7 | 33.8 | 0.00 | 0.00 | 0.00 | 46 | 1012.1 |
| 20260503223049 | 21 | 208 | 24.1 | 32.2 | 0.00 | 0.00 | 0.00 | 46 | 1012.3 |
| 20260503222539 | 22 | 247 | 24.1 | 30.6 | 0.00 | 0.00 | 0.00 | 45 | 1012.3 |
| 20260503222037 | 22 | 256 | 17.7 | 25.7 | 0.00 | 0.00 | 0.00 | 49 | 1012.4 |
| 20260503221553 | 22 | 244 | 19.3 | 25.7 | 0.00 | 0.00 | 0.00 | 49 | 1012.5 |
| 20260503221101 | 22 | 245 | 14.5 | 25.7 | 0.00 | 0.00 | 0.00 | 47 | 1012.7 |
| 20260503220536 | 21 | 237 | 20.9 | 25.7 | 0.00 | 0.00 | 0.00 | 49 | 1012.7 |
| 20260503220049 | 22 | 245 | 17.7 | 24.1 | 0.00 | 0.00 | 0.00 | 49 | 1012.8 |
| 20260503215536 | 22 | 244 | 17.7 | 24.1 | 0.00 | 0.00 | 0.00 | 55 | 1012.8 |
| 20260503215036 | 22 | 247 | 17.7 | 27.4 | 0.00 | 0.00 | 0.00 | 53 | 1012.8 |
| 20260503214552 | 21 | 243 | 19.3 | 27.4 | 0.00 | 0.00 | 0.00 | 54 | 1012.8 |
| 20260503214040 | 21 | 252 | 22.5 | 27.4 | 0.00 | 0.00 | 0.00 | 58 | 1012.9 |
| 20260503213536 | 22 | 256 | 17.7 | 22.5 | 0.00 | 0.00 | 0.00 | 58 | 1012.9 |
| 20260503213040 | 22 | 264 | 14.5 | 22.5 | 0.00 | 0.00 | 0.00 | 51 | 1013.0 |
| 20260503212539 | 21 | 250 | 16.1 | 22.5 | 0.00 | 0.00 | 0.00 | 49 | 1013.0 |
| 20260503212036 | 21 | 248 | 14.5 | 24.1 | 0.00 | 0.00 | 0.00 | 52 | 1013.0 |
| 20260503211559 | 20 | 256 | 17.7 | 27.4 | 0.00 | 0.00 | 0.00 | 60 | 1013.2 |
| 20260503211035 | 20 | 247 | 19.3 | 27.4 | 0.00 | 0.00 | 0.00 | 60 | 1013.2 |
| 20260503210536 | 20 | 252 | 22.5 | 27.4 | 0.00 | 0.00 | 0.00 | 62 | 1013.4 |
| 20260503210050 | 20 | 252 | 24.1 | 27.4 | 0.00 | 0.00 | 0.00 | 62 | 1013.5 |
| 20260503205537 | 20 | 260 | 22.5 | 27.4 | 0.00 | 0.00 | 0.00 | 65 | 1013.5 |
| 20260503205036 | 19 | 251 | 20.9 | 27.4 | 0.00 | 0.00 | 0.00 | 66 | 1013.6 |
| 20260503204548 | 19 | 256 | 22.5 | 27.4 | 0.00 | 0.00 | 0.00 | 66 | 1013.5 |
| 20260503204036 | 19 | 258 | 22.5 | 27.4 | 0.00 | 0.00 | 0.00 | 67 | 1013.6 |
| 20260503203536 | 19 | 255 | 19.3 | 27.4 | 0.00 | 0.00 | 0.00 | 66 | 1013.6 |
| 20260503203105 | 19 | 254 | 22.5 | 27.4 | 0.00 | 0.00 | 0.00 | 65 | 1013.7 |
| 20260503202538 | 20 | 255 | 22.5 | 27.4 | 0.00 | 0.00 | 0.00 | 65 | 1013.7 |
| 20260503202036 | 20 | 259 | 19.3 | 22.5 | 0.00 | 0.00 | 0.00 | 65 | 1013.9 |
| 20260503201548 | 20 | 268 | 17.7 | 24.1 | 0.00 | 0.00 | 0.00 | 62 | 1013.9 |
| 20260503201036 | 19 | 256 | 17.7 | 27.4 | 0.00 | 0.00 | 0.00 | 69 | 1014.0 |
| 20260503200536 | 18 | 252 | 20.9 | 27.4 | 0.00 | 0.00 | 0.00 | 69 | 1014.1 |
| 20260503200043 | 18 | 252 | 22.5 | 27.4 | 0.00 | 0.00 | 0.00 | 71 | 1014.2 |
| 20260503195535 | 18 | 257 | 20.9 | 29.0 | 0.00 | 0.00 | 0.00 | 71 | 1014.2 |
| 20260503195037 | 18 | 253 | 20.9 | 29.0 | 0.00 | 0.00 | 0.00 | 72 | 1014.3 |
| 20260503194554 | 18 | 251 | 24.1 | 29.0 | 0.00 | 0.00 | 0.00 | 73 | 1014.4 |
| 20260503194037 | 18 | 261 | 22.5 | 27.4 | 0.00 | 0.00 | 0.00 | 71 | 1014.4 |
| 20260503193540 | 18 | 250 | 22.5 | 25.7 | 0.00 | 0.00 | 0.00 | 70 | 1014.6 |
| 20260503193051 | 18 | 258 | 22.5 | 25.7 | 0.00 | 0.00 | 0.00 | 70 | 1014.7 |
| 20260503192540 | 18 | 257 | 20.9 | 24.1 | 0.00 | 0.00 | 0.00 | 70 | 1014.7 |
| 20260503192038 | 18 | 259 | 19.3 | 24.1 | 0.00 | 0.00 | 0.00 | 72 | 1014.7 |
| 20260503191547 | 18 | 258 | 19.3 | 24.1 | 0.00 | 0.00 | 0.00 | 73 | 1014.8 |
| 20260503191043 | 18 | 262 | 19.3 | 22.5 | 0.00 | 0.00 | 0.00 | 71 | 1014.9 |
| 20260503190541 | 18 | 262 | 17.7 | 22.5 | 0.00 | 0.00 | 0.00 | 72 | 1014.9 |
| 20260503190049 | 18 | 257 | 16.1 | 22.5 | 0.00 | 0.00 | 0.00 | 72 | 1015.0 |
| 20260503185540 | 17 | 260 | 17.7 | 24.1 | 0.00 | 0.00 | 0.00 | 71 | 1015.0 |
| 20260503185040 | 17 | 257 | 17.7 | 24.1 | 0.00 | 0.00 | 0.00 | 73 | 1015.0 |
| 20260503184544 | 17 | 240 | 19.3 | 24.1 | 0.00 | 0.00 | 0.00 | 72 | 1015.1 |
| 20260503184040 | 17 | 254 | 19.3 | 24.1 | 0.00 | 0.00 | 0.00 | 73 | 1015.1 |
| 20260503183540 | 17 | 261 | 20.9 | 24.1 | 0.00 | 0.00 | 0.00 | 71 | 1015.1 |
| 20260503183047 | 17 | 252 | 20.9 | 25.7 | 0.00 | 0.00 | 0.00 | 72 | 1015.1 |
| 20260503182541 | 17 | 245 | 20.9 | 27.4 | 0.00 | 0.00 | 0.00 | 73 | 1015.1 |
| 20260503182039 | 16 | 251 | 20.9 | 27.4 | 0.00 | 0.00 | 0.00 | 75 | 1015.1 |
| 20260503181556 | 16 | 254 | 20.9 | 24.1 | 0.00 | 0.00 | 0.00 | 75 | 1015.1 |
| 20260503181040 | 16 | 249 | 20.9 | 24.1 | 0.00 | 0.00 | 0.00 | 74 | 1015.1 |
| 20260503180540 | 16 | 249 | 20.9 | 24.1 | 0.00 | 0.00 | 0.00 | 76 | 1015.1 |
| 20260503180049 | 16 | 257 | 20.9 | 24.1 | 0.00 | 0.00 | 0.00 | 76 | 1015.2 |
| 20260503175540 | 16 | 251 | 22.5 | 25.7 | 0.00 | 0.00 | 0.00 | 77 | 1015.3 |
| 20260503175040 | 16 | 256 | 22.5 | 25.7 | 0.00 | 0.00 | 0.00 | 78 | 1015.3 |
| 20260503174551 | 15 | 258 | 22.5 | 27.4 | 0.00 | 0.00 | 0.00 | 78 | 1015.2 |
| 20260503174040 | 15 | 255 | 24.1 | 27.4 | 0.00 | 0.00 | 0.00 | 79 | 1015.3 |
| 20260503173538 | 15 | 253 | 24.1 | 29.0 | 0.00 | 0.00 | 0.00 | 79 | 1015.2 |
| 20260503173054 | 15 | 258 | 24.1 | 30.6 | 0.00 | 0.00 | 0.00 | 81 | 1015.2 |
| 20260503172541 | 15 | 254 | 25.7 | 30.6 | 0.00 | 0.00 | 0.00 | 80 | 1015.2 |
| 20260503172040 | 15 | 252 | 27.4 | 30.6 | 0.00 | 0.00 | 0.00 | 81 | 1015.3 |
| 20260503171547 | 15 | 254 | 27.4 | 30.6 | 0.00 | 0.00 | 0.00 | 81 | 1015.3 |
| 20260503171039 | 15 | 252 | 22.5 | 27.4 | 0.00 | 0.00 | 0.00 | 80 | 1015.4 |
| 20260503170540 | 15 | 253 | 17.7 | 20.9 | 0.00 | 0.00 | 0.00 | 80 | 1015.4 |
| 20260503150539 | 15 | 247 | 16.1 | 20.9 | 0.00 | 0.00 | 0.00 | 77 | 1016.0 |